{"data":{"norad_id":68595,"epoch":"2026-05-24T21:19:29.786016Z","epoch_age_seconds":78484,"freshness":"FRESH","line1":"1 68595U 26072Y   26144.88853919  .00021305  00000+0  57823-3 0  9996","line2":"2 68595  51.8697 289.7569 0008679 299.3082  60.7037 15.37517459  7793","mean_motion":15.37517459,"eccentricity":0.0008679,"inclination_deg":51.8697,"raan_deg":289.7569,"arg_perigee_deg":299.3082,"mean_anomaly_deg":60.7037,"bstar":0.00057823,"rev_number":779,"period_min":93.65747306288,"perigee_km":447.52401748216,"apogee_km":459.38229167248,"semimajor_km":6831.5901545773,"source":"CELESTRAK","updated_at":"2026-05-25T13:38:07.953905Z"}}